Weather reports worldwide

Advertisment
Torino/Caselle, Italy (16059): temperature & dewpoint: 10.12.2019 13:00:00 - 16.12.2019 13:00:00 (CET)Torino/Caselle, Italy (16059): wind speed: 10.12.2019 13:00:00 - 16.12.2019 13:00:00 (CET)Torino/Caselle, Italy (16059): wind direction: 10.12.2019 13:00:00 - 16.12.2019 13:00:00 (CET)Torino/Caselle, Italy (16059): reduced air pressure: 10.12.2019 13:00:00 - 16.12.2019 13:00:00 (CET)Torino/Caselle, Italy (16059): visibility: 10.12.2019 13:00:00 - 16.12.2019 13:00:00 (CET)Torino/Caselle, Italy (16059): precipitation: 10.12.2019 13:00:00 - 16.12.2019 13:00:00 (CET)
Date & Time tt [°C] td [°C] ff [km/h] ff [kn] dd ppp [hPa] vv [km] rr [mm]
16.12.2019 13:00:00 8,4 4,8 4 2 - 1020,9 8 -
16.12.2019 12:00:00 8,0 4,0 4 2 - - 7 -
16.12.2019 11:00:00 7,0 4,0 4 2 - - 7 -
16.12.2019 10:00:00 6,3 4,6 8 4 W 1021,5 6 0,0
16.12.2019 09:00:00 6,0 5,0 5 3 WSW - 4,0 -
16.12.2019 08:00:00 5,0 5,0 2 1 - - 5 -
16.12.2019 07:00:00 5,4 4,8 4 2 WNW 1020,1 6 -
16.12.2019 06:00:00 5,0 4,0 4 2 N - 6 -
16.12.2019 05:00:00 5,0 4,0 4 2 NE - 6 -
16.12.2019 04:00:00 4,9 4,0 5 3 N 1019,8 6 0,0
16.12.2019 03:00:00 5,0 4,0 4 2 - - 6 -
16.12.2019 02:00:00 5,0 5,0 4 2 NE - 7 -
16.12.2019 01:00:00 5,9 4,4 4 2 - 1019,3 7 -
16.12.2019 00:00:00 6,0 5,0 4 2 SE - 7 -
15.12.2019 23:00:00 6,0 4,0 4 2 S - 8 -
15.12.2019 22:00:00 6,3 3,8 4 2 WNW 1018,7 8 0,0
15.12.2019 21:00:00 6,0 4,0 5 3 WSW - 8 -
15.12.2019 20:00:00 6,0 4,0 2 1 - - 8 -
15.12.2019 19:00:00 6,8 3,5 5 3 SSW 1017,6 8 -
15.12.2019 18:00:00 7,0 4,0 4 2 SSE - 7 -
15.12.2019 17:00:00 7,0 3,0 4 2 NE - 7 -
15.12.2019 16:00:00 7,4 3,7 4 2 E 1016,4 7 0,0
15.12.2019 15:00:00 8,0 3,0 5 3 E - 7 -
15.12.2019 14:00:00 8,0 3,0 4 2 - - 7 -
15.12.2019 13:00:00 7,8 3,0 2 1 - 1016,1 6 -
15.12.2019 12:00:00 6,0 4,0 5 3 WNW - 7 -
15.12.2019 11:00:00 6,0 3,0 5 3 NW - 7 -
15.12.2019 10:00:00 4,4 1,2 8 4 NW 1016,1 7 0,0
15.12.2019 09:00:00 2,0 0,0 9 5 NW - 7 -
15.12.2019 08:00:00 2,0 0,0 9 5 NW - 10 -
15.12.2019 07:00:00 3,1 0,9 8 4 NNW 1013,6 10 -
15.12.2019 06:00:00 2,0 0,0 9 5 N - 10 -
15.12.2019 05:00:00 2,0 0,0 8 4 NNE - 10 -
15.12.2019 04:00:00 3,7 -0,8 4 2 - 1011,5 10 0,0
15.12.2019 03:00:00 3,0 -1,0 9 5 NNW - 10 -
15.12.2019 02:00:00 5,0 -1,0 11 6 NW - 10 -
15.12.2019 01:00:00 3,3 0,1 11 6 N 1009,8 10 -
15.12.2019 00:00:00 4,0 1,0 8 4 NNW - 10 -
14.12.2019 23:00:00 5,0 1,0 5 3 N - 10 -
14.12.2019 22:00:00 4,0 1,0 11 6 N 1008,2 10 0,0
14.12.2019 21:00:00 4,0 2,0 2 1 - - 10 -
14.12.2019 20:00:00 6,0 2,0 5 3 NNW - 10 -
14.12.2019 19:00:00 7,0 2,5 5 3 N 1006,0 10 -
14.12.2019 18:00:00 6,0 3,0 8 4 NNE - 10 -
14.12.2019 17:00:00 9,0 3,0 8 4 NW - 10 -
14.12.2019 16:00:00 10,1 3,2 4 2 - 1004,1 10 0,0
14.12.2019 15:00:00 10,0 2,0 9 5 SSW - 10 -
14.12.2019 14:00:00 10,0 1,0 9 5 SSE - 10 -
14.12.2019 13:00:00 10,3 1,9 4 2 - 1002,5 10 -
14.12.2019 12:00:00 8,0 2,0 8 4 N - 10 -
14.12.2019 11:00:00 6,0 1,0 8 4 S - 10 -
14.12.2019 10:00:00 5,1 1,5 5 3 NNE 1001,0 10 0,0
14.12.2019 09:00:00 2,0 0,0 5 3 - - 10 -
14.12.2019 08:00:00 2,0 0,0 4 2 - - 10 -
14.12.2019 07:00:00 4,0 0,1 9 5 WNW 998,2 10 -
14.12.2019 06:00:00 4,0 1,0 9 5 WSW - 10 -
14.12.2019 05:00:00 4,0 0,0 11 6 W - 10 -
14.12.2019 04:00:00 2,7 1,7 5 3 - 997,2 10 0,0
14.12.2019 03:00:00 2,0 1,0 4 2 - - 10 -
14.12.2019 02:00:00 3,0 1,0 5 3 - - 10 -
14.12.2019 01:00:00 2,4 0,7 4 2 - 995,8 10 -
14.12.2019 00:00:00 2,0 0,0 5 3 SSW - 10 -
13.12.2019 23:00:00 2,0 0,0 8 4 NNW - 10 -
13.12.2019 22:00:00 0,4 -0,3 5 3 NW 993,7 10 0,0
13.12.2019 21:00:00 1,0 1,0 9 5 WNW - 10 -
13.12.2019 20:00:00 1,0 0,0 5 3 - - 10 -
13.12.2019 19:00:00 1,8 0,8 9 5 WNW 991,6 10 -
13.12.2019 18:00:00 1,0 1,0 5 3 ESE - 10 -
13.12.2019 17:00:00 2,0 1,0 5 3 NNE - 10 -
13.12.2019 16:00:00 2,3 0,7 8 4 SE 988,6 10 0,0
13.12.2019 15:00:00 3,0 1,0 5 3 SSW - 10 -
13.12.2019 14:00:00 3,0 0,0 4 2 - - 7 -
13.12.2019 13:00:00 2,7 0,9 4 2 - 990,0 7 -
13.12.2019 12:00:00 2,0 1,0 5 3 WNW - 3,5 -
13.12.2019 11:00:00 1,0 1,0 4 2 - - 1,2 -
13.12.2019 10:00:00 0,7 0,7 9 5 NNW 991,5 1,2 0,0
13.12.2019 09:00:00 0,0 0,0 2 1 - - 0,3 -
13.12.2019 08:00:00 1,0 1,0 5 3 WNW - 1,4 -
13.12.2019 07:00:00 0,6 0,3 0 0 N 994,3 2,0 -
13.12.2019 06:00:00 1,0 0,0 5 3 E - 5 -
13.12.2019 05:00:00 1,0 0,0 4 2 - - 6 -
13.12.2019 04:00:00 1,7 -0,6 4 2 S 996,7 6 0,0
13.12.2019 03:00:00 2,0 -1,0 2 1 - - 6 -
13.12.2019 02:00:00 2,0 0,0 2 1 NNE - 6 -
13.12.2019 01:00:00 1,8 -0,4 8 4 N 1000,0 6 -
13.12.2019 00:00:00 2,0 -1,0 2 1 NNW - 8 -
12.12.2019 23:00:00 2,0 0,0 4 2 NE - 8 -
12.12.2019 22:00:00 2,0 -0,5 8 4 ENE 1002,4 8 0,0
12.12.2019 21:00:00 2,0 -1,0 9 5 NNE - 6 -
12.12.2019 20:00:00 2,0 0,0 5 3 NE - 4,0 -
12.12.2019 19:00:00 2,2 -0,1 8 4 NNE 1004,0 4,0 -
12.12.2019 18:00:00 3,0 0,0 5 3 NNW - 4,0 -
12.12.2019 17:00:00 3,0 0,0 8 4 N - 4,0 -
12.12.2019 16:00:00 2,6 -0,4 4 2 - 1005,0 4,0 0,0
12.12.2019 15:00:00 3,0 -1,0 4 2 - - 4,0 -
12.12.2019 14:00:00 3,0 0,0 4 2 - - 4,0 -
12.12.2019 13:00:00 2,5 2,0 4 2 - 1006,1 3,0 -
12.12.2019 12:00:00 2,0 2,0 4 2 - - 3,5 -
12.12.2019 11:00:00 1,0 0,0 8 4 E - 5 -
12.12.2019 10:00:00 0,5 -0,8 4 2 - 1006,5 6 0,0
12.12.2019 09:00:00 0,0 0,0 4 2 - - 8 -
12.12.2019 08:00:00 -1,0 -2,0 4 2 - - 10 -
12.12.2019 07:00:00 -0,7 -1,5 5 3 N 1005,4 8 -
12.12.2019 06:00:00 0,0 -1,0 5 3 WNW - 7 -
12.12.2019 05:00:00 1,0 0,0 5 3 NW - 10 -
12.12.2019 04:00:00 1,5 0,4 2 1 - 1005,4 10 0,0
12.12.2019 03:00:00 2,0 0,0 4 2 - - 10 -
12.12.2019 02:00:00 2,0 0,0 4 2 WNW - 10 -
12.12.2019 01:00:00 2,5 0,3 8 4 N 1007,2 10 -
12.12.2019 00:00:00 3,0 0,0 4 2 ENE - 10 -
11.12.2019 23:00:00 3,0 0,0 5 3 S - 10 -
11.12.2019 22:00:00 3,4 -0,2 8 4 SSW 1009,5 10 0,0
11.12.2019 21:00:00 3,0 0,0 4 2 - - 10 -
11.12.2019 20:00:00 4,0 -2,0 5 3 NNW - 10 -
11.12.2019 19:00:00 3,6 -0,3 5 3 N 1011,4 10 -
11.12.2019 18:00:00 4,0 -1,0 8 4 N - 10 -
11.12.2019 17:00:00 4,0 -1,0 8 4 N - 10 -
11.12.2019 16:00:00 4,2 -0,2 5 3 N 1013,2 10 0,0
11.12.2019 15:00:00 5,0 0,0 4 2 E - 10 -
11.12.2019 14:00:00 5,0 0,0 5 3 NE - 10 -
11.12.2019 13:00:00 4,7 -0,7 5 3 ENE 1016,1 10 -
11.12.2019 12:00:00 4,0 -2,0 8 4 NNE - 10 -
11.12.2019 11:00:00 4,0 -2,0 2 1 - - 10 -
11.12.2019 10:00:00 1,8 -1,4 4 2 SSE 1018,8 10 0,0
11.12.2019 09:00:00 3,0 -4,0 8 4 NW - 10 -
11.12.2019 08:00:00 1,0 -5,0 11 6 WNW - 10 -
11.12.2019 07:00:00 0,8 -5,5 8 4 NNW 1019,2 10 -
11.12.2019 06:00:00 0,0 -6,0 8 4 NNW - 10 -
11.12.2019 05:00:00 1,0 -7,0 5 3 NW - 10 -
11.12.2019 04:00:00 2,1 -5,6 9 5 NW 1020,8 10 0,0
11.12.2019 03:00:00 2,0 -5,0 8 4 NW - 10 -
11.12.2019 02:00:00 3,0 -5,0 5 3 N - 10 -
11.12.2019 01:00:00 2,0 -4,9 4 2 WNW 1021,8 10 -
11.12.2019 00:00:00 1,0 -5,0 5 3 NNE - 10 -
10.12.2019 23:00:00 4,0 -5,0 8 4 WNW - 10 -
10.12.2019 22:00:00 2,6 -4,7 4 2 - 1021,6 10 0,0
10.12.2019 21:00:00 3,0 -4,0 11 6 WNW - 10 -
10.12.2019 20:00:00 4,0 -4,0 8 4 NW - 10 -
10.12.2019 19:00:00 6,0 -3,8 8 4 NW 1020,5 10 -
10.12.2019 18:00:00 8,0 -4,0 5 3 W - 10 -
10.12.2019 17:00:00 10,0 -7,0 2 1 NE - 10 -
10.12.2019 16:00:00 10,8 -2,8 8 4 E 1019,3 10 0,0
10.12.2019 15:00:00 12,0 -5,0 9 5 E - 10 -
10.12.2019 14:00:00 12,0 -4,0 11 6 ESE - 10 -
10.12.2019 13:00:00 11,9 -3,0 13 7 ESE 1019,8 10 -

tt = temperature
td = dewpoint
ff = wind speed
dd = wind direction
ppp = reduced air pressure
vv = visibility
rr = precipitation

Next stations